Weather History for Ephrata, WA

Change the Weather History Date:

Wednesday, March 7, 2012

  Actual Average Record
Temperature  
Mean Temperature 35 °F 40 °F  
Max Temperature 50 °F 51 °F 71 °F (2005)
Min Temperature 20 °F 30 °F 11 °F (1951)
Degree Days  
Heating Degree Days 30 25  
Month to date heating degree days 173 182  
Since 1 July heating degree days 4624 4755  
Cooling Degree Days 0 0  
Month to date cooling degree days 0 0  
Year to date cooling degree days 0 0  
Moisture  
Dew Point 18 °F    
Average Humidity 52    
Maximum Humidity 77    
Minimum Humidity 26    
Precipitation  
Precipitation 0.00 in 0.02 in 0.31 in (1986)
Month to date precipitation 0.00 0.18  
Year to date precipitation 0.91 1.83  
Sea Level Pressure  
Sea Level Pressure 30.37 in    
Wind  
Wind Speed 5 mph (WNW)    
Max Wind Speed 14 mph    
Max Gust Speed 17 mph    
Visibility 10 miles    
Events      
T = Trace of Precipitation, MM = Missing Value Source: NWS Daily Summary

Daily Weather History Graph

Daily Weather History Graph

Search for Another Location

Airport:

Trip Planner

Search our weather history database for the weather conditions in past years. The results will help you decide how hot, cold, wet, or windy it might be!

Date:

Astronomy

Mar. 07, 2012 Rise Set
Actual Time 6:25 AM PST 5:52 PM PST
Civil Twilight 5:55 AM PST 6:23 PM PST
Nautical Twilight 5:19 AM PST 6:59 PM PST
Astronomical Twilight 4:43 AM PST 7:34 PM PST
Moon 5:37 PM PST (3/7) 5:38 AM PST (3/7)
Length of Visible Light 12h 28m
Length of Day
11h 27m
Full, 100% of the Moon is Illuminated
Mar 7
Full
Mar 8
Full
Mar 14
Last Quarter
Mar 22
New
Mar 30
First Quarter

Hourly Weather History & Observations

Time (PST) Temp. Windchill Dew Point Humidity Pressure Visibility Wind Dir Wind Speed Gust Speed Precip Events Conditions
12:53 AM 32.0 °F 24.2 °F 17.1 °F 54% 30.23 in 10.0 mi NNW 9.2 mph - N/A   Clear
1:53 AM 30.9 °F 25.2 °F 16.0 °F 54% 30.23 in 10.0 mi WNW 5.8 mph - N/A   Clear
2:53 AM 30.9 °F 24.3 °F 16.0 °F 54% 30.25 in 10.0 mi NW 6.9 mph - N/A   Clear
4:53 AM 28.9 °F 23.9 °F 15.1 °F 56% 30.27 in 10.0 mi North 4.6 mph - N/A   Clear
5:53 AM 21.0 °F 16.2 °F 15.1 °F 78% 30.30 in 10.0 mi North 3.5 mph - N/A   Clear
6:53 AM 21.0 °F 16.2 °F 15.1 °F 78% 30.32 in 10.0 mi North 3.5 mph - N/A   Clear
7:53 AM 26.1 °F - 18.0 °F 71% 30.33 in 10.0 mi Calm Calm - N/A   Clear
8:53 AM 30.9 °F - 19.0 °F 61% 30.36 in 10.0 mi Calm Calm - N/A   Clear
9:53 AM 36.0 °F - 19.9 °F 52% 30.38 in 10.0 mi Calm Calm - N/A   Clear
10:53 AM 39.9 °F 37.8 °F 14.0 °F 35% 30.38 in 10.0 mi Variable 3.5 mph - N/A   Clear
11:53 AM 44.1 °F 39.0 °F 14.0 °F 30% 30.38 in 10.0 mi SW 9.2 mph - N/A   Clear
12:53 PM 46.0 °F 41.4 °F 14.0 °F 28% 30.37 in 10.0 mi South 9.2 mph - N/A   Clear
1:53 PM 48.0 °F - 17.1 °F 29% 30.37 in 10.0 mi SW 11.5 mph 16.1 mph N/A   Clear
2:53 PM 48.9 °F - 18.0 °F 29% 30.37 in 10.0 mi SSW 11.5 mph - N/A   Clear
3:53 PM 48.0 °F - 19.0 °F 32% 30.38 in 10.0 mi South 10.4 mph - N/A   Clear
4:53 PM 46.9 °F - 19.0 °F 33% 30.39 in 10.0 mi SSE 8.1 mph - N/A   Clear
5:53 PM 43.0 °F 39.5 °F 21.0 °F 42% 30.42 in 10.0 mi SE 5.8 mph - N/A   Clear
6:53 PM 37.0 °F 34.5 °F 21.0 °F 52% 30.44 in 10.0 mi SSE 3.5 mph - N/A   Clear
7:53 PM 39.0 °F - 21.0 °F 49% 30.44 in 10.0 mi Calm Calm - N/A   Clear
8:53 PM 34.0 °F - 21.0 °F 59% 30.44 in 10.0 mi Calm Calm - N/A   Clear
9:53 PM 30.0 °F 25.2 °F 21.0 °F 69% 30.45 in 10.0 mi North 4.6 mph - N/A   Clear
10:53 PM 28.9 °F 23.9 °F 19.9 °F 69% 30.46 in 10.0 mi North 4.6 mph - N/A   Clear
11:53 PM 30.0 °F 23.2 °F 19.9 °F 66% 30.45 in 10.0 mi North 6.9 mph - N/A   Clear